Home   Weather   Molde   Past weeks

Flag for Norway Past Weather in Molde, Norway — Yesterday and Last 2 Weeks

Now
37 °F

Passing clouds.


Feels Like: 34 °F
Forecast: 33 / 40 °F
Wind: 5 mph from Southwest

Location: Aro

Current Time: Apr 25, 2017 at 10:39:38 pm

Latest Report: Apr 25, 2017 at 9:50 pm


Visibility: N/A

Pressure: 29.80 "Hg

Humidity: 81%

Dew Point: 32 °F

Location of MoldeLocation

Past Weather in Molde — Graph

°F

Molde Temperature Yesterday

Maximum temperature yesterday: 41 °F (at 4:50 pm)
Minimum temperature yesterday: 30 °F (at 4:20 am)
Average temperature yesterday: 35 °F

High & Low Weather Summary for the Past Weeks

 TemperatureHumidityPressure
High48 °F (Apr 18, 2:50 pm)100% (Apr 23, 2:50 am)30.51 "Hg (Apr 23, 2:50 am)
Low28 °F (Apr 15, 3:20 am)29% (Apr 15, 12:50 pm)29.42 "Hg (Apr 12, 5:20 am)
Average39 °F69%29.86 "Hg
* Reported Apr 10 9:20 pm — Apr 25 9:20 pm, Molde, Weather by CustomWeather, © 2017

Note: Actual official high and low records may vary slightly from our data, if they occured in-between our weather recording intervals... More about our weather records

Advertising

Molde Weather History for the Previous 24 Hours

Scroll right to see more
 ConditionsComfort  
Time TempWeatherWind HumidityBarometerVisibility
9:20 pm
Tue, Apr 25
37 °FRain showers. Broken clouds.5 mph81%29.80 "HgN/A
8:50 pm37 °FDrizzle. Broken clouds.6 mph75%29.80 "HgN/A
8:20 pm41 °FScattered showers. Broken clouds.7 mph57%29.77 "HgN/A
7:50 pm41 °FBroken clouds.7 mph57%29.77 "HgN/A
7:20 pm41 °FLight rain. Broken clouds.10 mph66%29.77 "HgN/A
6:20 pm45 °FScattered clouds.12 mph46%29.77 "HgN/A
5:50 pm45 °FBroken clouds.13 mph46%29.77 "HgN/A
5:20 pm45 °FScattered showers. Broken clouds.10 mph49%29.77 "HgN/A
4:50 pm45 °FSprinkles. Broken clouds.10 mph49%29.77 "HgN/A
4:20 pm43 °FScattered showers. Partly sunny.9 mph49%29.77 "HgN/A
3:50 pm46 °FPartly sunny.12 mph46%29.74 "HgN/A
3:20 pm45 °FScattered showers. Partly sunny.15 mph49%29.74 "HgN/A
2:50 pm45 °FScattered showers. Broken clouds.15 mph53%29.74 "HgN/A
2:20 pm45 °FBroken clouds.10 mph53%29.74 "HgN/A
1:50 pm45 °FScattered showers. Broken clouds.8 mph57%29.74 "HgN/A
1:20 pm43 °FSprinkles. Broken clouds.3 mph61%29.74 "HgN/A
12:50 pm39 °FScattered showers. Broken clouds.14 mph70%29.74 "HgN/A
12:20 pm45 °FScattered showers. Broken clouds.7 mph53%29.74 "HgN/A
11:50 am45 °FScattered showers. Scattered clouds.5 mph61%29.71 "HgN/A
11:20 am43 °FScattered showers. Broken clouds.7 mph66%29.71 "HgN/A
10:50 am43 °FScattered showers. Scattered clouds.7 mph61%29.71 "HgN/A
10:20 am45 °FScattered showers. Scattered clouds.5 mph57%29.71 "HgN/A
9:50 am43 °FScattered clouds.5 mph66%29.71 "HgN/A
9:20 am41 °FPassing clouds.3 mph66%29.71 "HgN/A
8:50 am41 °FPassing clouds.2 mph66%29.71 "HgN/A
8:20 am37 °FPassing clouds.3 mph75%29.71 "HgN/A
7:50 am39 °FPassing clouds.2 mph70%29.68 "HgN/A
7:20 am34 °FScattered clouds.5 mph87%29.68 "HgN/A
6:50 am34 °FScattered clouds.5 mph81%29.68 "HgN/A
6:20 am34 °FPartly sunny.6 mph81%29.68 "HgN/A
5:50 am32 °FScattered clouds.2 mph87%29.68 "HgN/A
5:20 am32 °FPassing clouds.3 mph80%29.68 "HgN/A
4:50 am32 °FChilly.3 mph80%29.68 "HgN/A
4:20 am34 °FChilly.7 mph75%29.65 "HgN/A
3:50 am34 °FChilly.7 mph75%29.65 "HgN/A
3:20 am34 °FChilly.9 mph75%29.65 "HgN/A
2:50 am34 °FChilly.6 mph75%29.65 "HgN/A
2:20 am34 °FChilly.6 mph75%29.65 "HgN/A
1:50 am34 °FChilly.6 mph75%29.65 "HgN/A
1:20 am34 °FPassing clouds.6 mph75%29.65 "HgN/A
12:50 am36 °FClear.5 mph70%29.65 "Hg10 mi
12:20 am34 °FClear.7 mph70%29.65 "Hg10 mi
11:50 pm
Mon, Apr 24
36 °FPassing clouds.7 mph70%29.65 "HgN/A
11:20 pm36 °FPassing clouds.7 mph70%29.65 "HgN/A
10:50 pm36 °FPassing clouds.8 mph70%29.65 "HgN/A
Weather by CustomWeather, © 2017

See weather overviewHow to use our weather pages